Biloxi, MS

3:06 PM CDT on March 26, 2017 (GMT -0500)
Keesler Air Force Base

Weather History for KBIX - October, 2012

Change the Weather History Date:

Monday, October 8, 2012

  Actual Average Record
Temperature  
Mean Temperature 63 °F -  
Max Temperature 74 °F 80 °F 88 °F (1962)
Min Temperature 52 °F 62 °F 47 °F (1952)
Degree Days  
Heating Degree Days 2    
Growing Degree Days 13 (Base 50)    
Moisture  
Dew Point 52 °F    
Average Humidity 69    
Maximum Humidity 85    
Minimum Humidity 51    
Precipitation  
Precipitation 0.00 in - - ()
Sea Level Pressure  
Sea Level Pressure 30.10 in    
Wind  
Wind Speed 8 mph (NNE)    
Max Wind Speed 10 mph    
Max Gust Speed 17 mph    
Visibility 10 miles    
Events      
Averages and records for this station are not official NWS values.
T = Trace of Precipitation, MM = Missing Value Source: NWS Daily Summary

Daily Weather History Graph

Daily Weather History Graph

Search for Another Location

Airport or City:

Trip Planner

Search our weather history database for the weather conditions in past years. The results will help you decide how hot, cold, wet, or windy it might be!

Date:

Astronomy

Oct. 08, 2012 Rise Set
Actual Time 6:53 AM CDT 6:31 PM CDT
Civil Twilight 6:29 AM CDT 6:55 PM CDT
Nautical Twilight 6:01 AM CDT 7:23 PM CDT
Astronomical Twilight 5:33 AM CDT 7:51 PM CDT
Moon 12:00 AM CDT (10/8) 1:55 PM CDT (10/8)
Length of Visible Light 12h 26m
Length of Day
11h 38m
Last Quarter, 46% of the Moon is Illuminated
Oct 8
Last Quarter
Oct 15
New
Oct 21
First Quarter
Oct 29
Full
Nov 6
Last Quarter

Hourly Weather History & Observations

Time (CDT) Temp. Dew Point Humidity Pressure Visibility Wind Dir Wind Speed Gust Speed Precip Events Conditions
12:55 AM 57.0 °F 51.3 °F 81% 30.08 in 10.0 mi NNE 10.4 mph - N/A   Clear
1:55 AM 55.9 °F 50.9 °F 83% 30.07 in 10.0 mi NE 10.4 mph - N/A   Clear
2:55 AM 54.9 °F 49.6 °F 83% 30.08 in 10.0 mi Variable 6.9 mph - N/A   Clear
3:55 AM 54.0 °F 49.1 °F 84% 30.08 in 10.0 mi NNE 8.1 mph - N/A   Clear
4:55 AM 53.6 °F 48.6 °F 83% 30.07 in 10.0 mi NNE 6.9 mph - N/A   Clear
5:55 AM 52.3 °F 48.0 °F 85% 30.08 in 10.0 mi NNE 5.8 mph - N/A   Clear
6:55 AM 53.1 °F 47.8 °F 82% 30.10 in 10.0 mi NNE 10.4 mph - N/A   Overcast
7:55 AM 54.0 °F 47.3 °F 78% 30.14 in 10.0 mi Variable 6.9 mph - N/A   Partly Cloudy
8:55 AM 57.4 °F 47.1 °F 69% 30.14 in 10.0 mi North 8.1 mph - N/A   Partly Cloudy
9:55 AM 61.5 °F 46.6 °F 58% 30.15 in 10.0 mi NNE 9.2 mph 17.3 mph N/A   Clear
10:55 AM 64.9 °F 48.7 °F 56% 30.14 in 10.0 mi NNE 10.4 mph - N/A   Clear
11:55 AM 69.3 °F 51.6 °F 53% 30.12 in 10.0 mi Variable 6.9 mph - N/A   Clear
12:55 PM 71.1 °F 53.1 °F 53% 30.11 in 10.0 mi Variable 6.9 mph - N/A   Clear
1:55 PM 73.6 °F 54.7 °F 51% 30.07 in 10.0 mi Variable 4.6 mph - N/A   Clear
2:55 PM 74.3 °F 55.9 °F 53% 30.06 in 10.0 mi NNE 5.8 mph - N/A   Clear
3:55 PM 73.8 °F 55.8 °F 53% 30.05 in 10.0 mi Variable 4.6 mph - N/A   Clear
4:55 PM 73.2 °F 55.9 °F 55% 30.06 in 10.0 mi Variable 4.6 mph - N/A   Clear
5:55 PM 70.0 °F 55.4 °F 60% 30.06 in 10.0 mi North 6.9 mph - N/A   Clear
6:55 PM 66.9 °F 54.9 °F 65% 30.08 in 10.0 mi NNE 6.9 mph - N/A   Clear
7:55 PM 64.8 °F 54.3 °F 69% 30.09 in 10.0 mi NNE 6.9 mph - N/A   Clear
8:55 PM 63.1 °F 53.8 °F 71% 30.11 in 10.0 mi NNE 5.8 mph - N/A   Clear
9:55 PM 61.3 °F 54.0 °F 77% 30.12 in 10.0 mi NNE 5.8 mph - N/A   Clear
10:55 PM 59.9 °F 53.8 °F 80% 30.12 in 10.0 mi NNE 5.8 mph - N/A   Clear
11:55 PM 58.8 °F 52.9 °F 81% 30.12 in 10.0 mi NNE 6.9 mph - N/A   Clear